| time (UTC) | temp F | wind direction | speed MPH | gust MPH | rain 1hr in | rain 24hr in | rain mn in | humidity % | barometer mb |
| 20260504191522 | 76 | 359 | 8.0 | 26.0 | 0.00 | 0.00 | 0.00 | 45 | 998.4 |
| 20260504190017 | 75 | 359 | 8.0 | 17.0 | 0.00 | 0.00 | 0.00 | 48 | 998.5 |
| 20260504184514 | 75 | 359 | 6.0 | 18.0 | 0.00 | 0.00 | 0.00 | 49 | 998.8 |
| 20260504183012 | 75 | 261 | 11.0 | 18.0 | 0.00 | 0.00 | 0.00 | 50 | 999.0 |
| 20260504181511 | 73 | 359 | 8.0 | 19.0 | 0.00 | 0.00 | 0.00 | 53 | 999.2 |
| 20260504180005 | 72 | 359 | 6.0 | 19.0 | 0.00 | 0.00 | 0.00 | 55 | 999.5 |
| 20260504174503 | 72 | 180 | 6.0 | 13.0 | 0.00 | 0.00 | 0.00 | 55 | 999.8 |
| 20260504173059 | 71 | 189 | 7.0 | 18.0 | 0.00 | 0.00 | 0.00 | 56 | 1000.0 |
| 20260504171556 | 71 | 229 | 9.0 | 17.0 | 0.00 | 0.00 | 0.00 | 57 | 1000.3 |
| 20260504081600 | 51 | 359 | 3.0 | 12.0 | 0.00 | 0.00 | 0.00 | 76 | 1003.5 |
| 20260504044533 | 52 | 359 | 3.0 | 11.0 | 0.00 | 0.00 | 0.00 | 74 | 1005.6 |
| 20260504043032 | 53 | 209 | 3.0 | 9.0 | 0.00 | 0.00 | 0.00 | 73 | 1005.7 |
| 20260504041621 | 53 | 194 | 3.0 | 9.0 | 0.00 | 0.00 | 0.00 | 73 | 1005.8 |
| 20260504040021 | 53 | 242 | 5.0 | 9.0 | 0.00 | 0.00 | 0.00 | 71 | 1005.8 |
| 20260504034517 | 53 | 359 | 4.0 | 11.0 | 0.00 | 0.00 | 0.00 | 71 | 1006.0 |
| 20260504033016 | 53 | 197 | 3.0 | 8.0 | 0.00 | 0.00 | 0.00 | 71 | 1006.1 |
| 20260504031518 | 53 | 184 | 4.0 | 8.0 | 0.00 | 0.00 | 0.00 | 71 | 1006.1 |
| 20260504030015 | 53 | 223 | 4.0 | 8.0 | 0.00 | 0.00 | 0.00 | 71 | 1006.1 |
| 20260504024515 | 53 | 249 | 3.0 | 9.0 | 0.00 | 0.00 | 0.00 | 71 | 1006.2 |
| 20260504023014 | 53 | 190 | 3.0 | 9.0 | 0.00 | 0.00 | 0.00 | 71 | 1006.1 |
| 20260504021515 | 53 | 182 | 4.0 | 7.0 | 0.00 | 0.00 | 0.00 | 71 | 1006.1 |
| 20260504020013 | 54 | 168 | 3.0 | 7.0 | 0.00 | 0.00 | 0.00 | 69 | 1006.1 |
| 20260504014513 | 55 | 171 | 3.0 | 10.0 | 0.00 | 0.00 | 0.00 | 66 | 1006.0 |
| 20260504013017 | 55 | 359 | 5.0 | 11.0 | 0.00 | 0.00 | 0.00 | 66 | 1006.1 |
| 20260504011511 | 56 | 359 | 5.0 | 13.0 | 0.00 | 0.00 | 0.00 | 66 | 1006.2 |
| 20260504010010 | 56 | 203 | 4.0 | 12.0 | 0.00 | 0.00 | 0.00 | 67 | 1006.2 |
| 20260504004516 | 55 | 214 | 2.0 | 8.0 | 0.00 | 0.00 | 0.00 | 70 | 1006.2 |
| 20260504003009 | 55 | 167 | 1.0 | 6.0 | 0.00 | 0.00 | 0.00 | 75 | 1006.1 |
| 20260504001508 | 55 | 182 | 3.0 | 7.0 | 0.00 | 0.00 | 0.00 | 76 | 1006.2 |
| 20260504000006 | 55 | 167 | 4.0 | 7.0 | 0.00 | 0.00 | 0.00 | 75 | 1006.4 |
| 20260503234504 | 55 | 168 | 5.0 | 11.0 | 0.00 | 0.00 | 0.00 | 75 | 1006.6 |
| 20260503233001 | 55 | 180 | 3.0 | 9.0 | 0.00 | 0.00 | 0.00 | 76 | 1006.9 |
| 20260503231602 | 55 | 359 | 5.0 | 15.0 | 0.00 | 0.00 | 0.00 | 76 | 1007.0 |
| 20260503230113 | 55 | 175 | 4.0 | 12.0 | 0.00 | 0.00 | 0.00 | 76 | 1007.1 |
| 20260503224559 | 54 | 156 | 5.0 | 11.0 | 0.00 | 0.00 | 0.00 | 75 | 1007.5 |
| 20260503223052 | 53 | 176 | 5.0 | 10.0 | 0.00 | 0.00 | 0.00 | 77 | 1007.7 |
| 20260503221550 | 52 | 359 | 2.0 | 10.0 | 0.00 | 0.00 | 0.00 | 78 | 1007.9 |
| 20260503220049 | 51 | 195 | 5.0 | 12.0 | 0.00 | 0.00 | 0.00 | 78 | 1007.9 |
| 20260503214549 | 52 | 164 | 6.0 | 13.0 | 0.00 | 0.00 | 0.00 | 78 | 1008.2 |
| 20260503213046 | 50 | 163 | 7.0 | 16.0 | 0.00 | 0.00 | 0.00 | 81 | 1008.2 |
| 20260503211603 | 49 | 156 | 4.0 | 13.0 | 0.00 | 0.00 | 0.00 | 85 | 1008.3 |
| 20260503210043 | 48 | 155 | 4.0 | 11.0 | 0.00 | 0.00 | 0.00 | 86 | 1008.5 |
| 20260503204540 | 48 | 162 | 6.0 | 12.0 | 0.00 | 0.00 | 0.00 | 86 | 1008.8 |
| 20260503203045 | 48 | 185 | 4.0 | 12.0 | 0.00 | 0.00 | 0.00 | 86 | 1009.2 |
| 20260503201536 | 48 | 199 | 4.0 | 13.0 | 0.00 | 0.00 | 0.00 | 86 | 1009.5 |
| 20260503200051 | 47 | 183 | 6.0 | 13.0 | 0.00 | 0.00 | 0.00 | 86 | 1009.8 |
| 20260503194530 | 48 | 178 | 2.0 | 13.0 | 0.00 | 0.00 | 0.00 | 85 | 1010.5 |
| 20260503193032 | 48 | 184 | 5.0 | 14.0 | 0.00 | 0.00 | 0.00 | 82 | 1011.4 |